| time (UTC) | temp F | wind direction | speed knots | gust knots | rain 1hr in | rain 24hr in | rain mn in | humidity % | barometer mb |
| 20260510082737 | 54 | 197 | 0.9 | 1.7 | 0.00 | 0.00 | 0.00 | 86 | 1011.9 |
| 20260510082234 | 55 | 189 | 0.9 | 1.7 | 0.00 | 0.00 | 0.00 | 86 | 1011.8 |
| 20260510081733 | 55 | 188 | 0.0 | 1.7 | 0.00 | 0.00 | 0.00 | 86 | 1011.8 |
| 20260510081230 | 55 | 187 | 0.0 | 1.7 | 0.00 | 0.00 | 0.00 | 86 | 1011.9 |
| 20260510080725 | 55 | 180 | 0.0 | 1.7 | 0.00 | 0.00 | 0.00 | 86 | 1011.9 |
| 20260510080221 | 55 | 187 | 0.9 | 2.6 | 0.00 | 0.00 | 0.00 | 86 | 1011.7 |
| 20260510075718 | 55 | 187 | 0.9 | 0.9 | 0.00 | 0.00 | 0.00 | 87 | 1011.8 |
| 20260510075215 | 55 | 192 | 0.9 | 1.7 | 0.00 | 0.00 | 0.00 | 87 | 1011.9 |
| 20260510074713 | 55 | 181 | 0.0 | 1.7 | 0.00 | 0.00 | 0.00 | 87 | 1011.7 |
| 20260510074209 | 55 | 188 | 0.9 | 1.7 | 0.00 | 0.00 | 0.00 | 88 | 1011.8 |
| 20260510073705 | 55 | 188 | 1.7 | 2.6 | 0.00 | 0.00 | 0.00 | 88 | 1011.7 |
| 20260510073201 | 54 | 184 | 0.9 | 1.7 | 0.00 | 0.00 | 0.00 | 88 | 1011.6 |
| 20260510072657 | 54 | 200 | 1.7 | 2.6 | 0.00 | 0.00 | 0.00 | 89 | 1011.9 |
| 20260510072154 | 54 | 189 | 0.9 | 0.9 | 0.00 | 0.00 | 0.00 | 88 | 1011.8 |
| 20260510071650 | 54 | 185 | 0.9 | 1.7 | 0.00 | 0.00 | 0.00 | 88 | 1011.8 |
| 20260510071147 | 54 | 196 | 1.7 | 2.6 | 0.00 | 0.00 | 0.00 | 88 | 1012.1 |
| 20260510070645 | 54 | 187 | 0.9 | 2.6 | 0.00 | 0.00 | 0.00 | 88 | 1011.7 |
| 20260510070142 | 54 | 186 | 0.0 | 1.7 | 0.00 | 0.00 | 0.00 | 88 | 1011.9 |
| 20260510065637 | 54 | 190 | 0.9 | 1.7 | 0.00 | 0.00 | 0.00 | 88 | 1011.7 |
| 20260510065134 | 54 | 188 | 0.9 | 1.7 | 0.00 | 0.00 | 0.00 | 88 | 1011.8 |
| 20260510064630 | 54 | 189 | 0.0 | 1.7 | 0.00 | 0.00 | 0.00 | 88 | 1011.7 |
| 20260510064127 | 54 | 191 | 0.9 | 0.9 | 0.00 | 0.00 | 0.00 | 88 | 1011.9 |
| 20260510063624 | 54 | 200 | 0.9 | 1.7 | 0.00 | 0.00 | 0.00 | 88 | 1011.8 |
| 20260510063121 | 54 | 191 | 1.7 | 1.7 | 0.00 | 0.00 | 0.00 | 87 | 1011.8 |
| 20260510062616 | 55 | 195 | 0.9 | 1.7 | 0.00 | 0.00 | 0.00 | 87 | 1011.8 |
| 20260510062113 | 54 | 193 | 1.7 | 1.7 | 0.00 | 0.00 | 0.00 | 87 | 1011.8 |
| 20260510061609 | 54 | 192 | 0.9 | 1.7 | 0.00 | 0.00 | 0.00 | 87 | 1011.8 |
| 20260510061106 | 55 | 192 | 0.9 | 2.6 | 0.00 | 0.00 | 0.00 | 86 | 1011.8 |
| 20260510060602 | 55 | 223 | 1.7 | 2.6 | 0.00 | 0.00 | 0.00 | 86 | 1012.1 |
| 20260510060059 | 55 | 191 | 0.9 | 4.3 | 0.00 | 0.00 | 0.00 | 86 | 1011.9 |
| 20260510055554 | 55 | 202 | 1.7 | 1.7 | 0.00 | 0.00 | 0.00 | 86 | 1012.2 |
| 20260510055053 | 55 | 191 | 0.9 | 1.7 | 0.00 | 0.00 | 0.00 | 86 | 1012.1 |
| 20260510054549 | 54 | 188 | 0.9 | 1.7 | 0.00 | 0.00 | 0.00 | 86 | 1012.1 |
| 20260510054043 | 55 | 191 | 0.9 | 4.3 | 0.00 | 0.00 | 0.00 | 86 | 1012.1 |
| 20260510053538 | 55 | 191 | 0.9 | 0.9 | 0.00 | 0.00 | 0.00 | 85 | 1012.4 |
| 20260510053035 | 55 | 200 | 0.9 | 2.6 | 0.00 | 0.00 | 0.00 | 85 | 1012.3 |
| 20260510052531 | 55 | 203 | 1.7 | 2.6 | 0.00 | 0.00 | 0.00 | 85 | 1012.2 |
| 20260510052027 | 55 | 200 | 1.7 | 1.7 | 0.00 | 0.00 | 0.00 | 85 | 1012.3 |
| 20260510051523 | 54 | 189 | 0.9 | 1.7 | 0.00 | 0.00 | 0.00 | 85 | 1012.3 |
| 20260510051020 | 54 | 192 | 0.0 | 2.6 | 0.00 | 0.00 | 0.00 | 85 | 1012.3 |
| 20260510050517 | 54 | 193 | 0.9 | 2.6 | 0.00 | 0.00 | 0.00 | 85 | 1012.2 |
| 20260510050014 | 54 | 195 | 0.0 | 1.7 | 0.00 | 0.00 | 0.00 | 84 | 1012.6 |
| 20260510045511 | 55 | 195 | 0.9 | 1.7 | 0.00 | 0.00 | 0.00 | 84 | 1012.2 |
| 20260510045007 | 55 | 202 | 1.7 | 2.6 | 0.00 | 0.00 | 0.00 | 84 | 1012.3 |
| 20260510044504 | 54 | 197 | 0.9 | 2.6 | 0.00 | 0.00 | 0.00 | 84 | 1012.4 |
| 20260510044002 | 54 | 193 | 0.9 | 2.6 | 0.00 | 0.00 | 0.00 | 84 | 1011.9 |
| 20260510043457 | 54 | 196 | 0.9 | 1.7 | 0.00 | 0.00 | 0.00 | 84 | 1012.5 |
| 20260510042956 | 55 | 209 | 1.7 | 1.7 | 0.00 | 0.00 | 0.00 | 84 | 1012.1 |
| 20260510042452 | 55 | 194 | 1.7 | 1.7 | 0.00 | 0.00 | 0.00 | 84 | 1012.1 |
| 20260510041947 | 55 | 197 | 0.9 | 2.6 | 0.00 | 0.00 | 0.00 | 83 | 1012.3 |
| 20260510041444 | 55 | 194 | 0.9 | 1.7 | 0.00 | 0.00 | 0.00 | 83 | 1011.6 |
| 20260510040942 | 55 | 195 | 0.9 | 0.9 | 0.00 | 0.00 | 0.00 | 83 | 1011.9 |
| 20260510040438 | 55 | 197 | 1.7 | 1.7 | 0.00 | 0.00 | 0.00 | 83 | 1011.7 |
| 20260510035934 | 54 | 196 | 0.9 | 1.7 | 0.00 | 0.00 | 0.00 | 83 | 1011.9 |
| 20260510035430 | 55 | 188 | 0.0 | 1.7 | 0.00 | 0.00 | 0.00 | 83 | 1011.6 |
| 20260510034925 | 55 | 190 | 0.9 | 1.7 | 0.00 | 0.00 | 0.00 | 84 | 1011.8 |
| 20260510034424 | 54 | 193 | 0.9 | 1.7 | 0.00 | 0.00 | 0.00 | 84 | 1011.9 |
| 20260510033919 | 54 | 193 | 0.9 | 1.7 | 0.00 | 0.00 | 0.00 | 84 | 1011.7 |
| 20260510033416 | 55 | 196 | 1.7 | 1.7 | 0.00 | 0.00 | 0.00 | 82 | 1011.7 |
| 20260510032913 | 55 | 198 | 1.7 | 1.7 | 0.00 | 0.00 | 0.00 | 82 | 1011.7 |
| 20260510032410 | 55 | 196 | 1.7 | 1.7 | 0.00 | 0.00 | 0.00 | 82 | 1011.8 |
| 20260510031905 | 55 | 195 | 0.9 | 1.7 | 0.00 | 0.00 | 0.00 | 83 | 1011.5 |
| 20260510031401 | 55 | 194 | 0.0 | 1.7 | 0.00 | 0.00 | 0.00 | 82 | 1011.5 |
| 20260510030901 | 55 | 195 | 0.9 | 1.7 | 0.00 | 0.00 | 0.00 | 82 | 1011.5 |
| 20260510030357 | 55 | 194 | 0.9 | 1.7 | 0.00 | 0.00 | 0.00 | 82 | 1011.3 |
| 20260510025855 | 55 | 194 | 0.0 | 1.7 | 0.00 | 0.00 | 0.00 | 81 | 1011.5 |
| 20260510025353 | 55 | 194 | 0.9 | 1.7 | 0.00 | 0.00 | 0.00 | 81 | 1011.4 |
| 20260510024849 | 55 | 195 | 0.9 | 1.7 | 0.00 | 0.00 | 0.00 | 82 | 1011.3 |
| 20260510024346 | 55 | 197 | 0.9 | 2.6 | 0.00 | 0.00 | 0.00 | 82 | 1011.4 |
| 20260510023842 | 55 | 180 | 0.9 | 2.6 | 0.00 | 0.00 | 0.00 | 82 | 1011.3 |
| 20260510023339 | 55 | 203 | 1.7 | 2.6 | 0.00 | 0.00 | 0.00 | 82 | 1011.4 |
| 20260510022836 | 54 | 191 | 0.0 | 0.9 | 0.00 | 0.00 | 0.00 | 83 | 1011.5 |
| 20260510022335 | 54 | 191 | 1.7 | 1.7 | 0.00 | 0.00 | 0.00 | 85 | 1011.2 |
| 20260510021834 | 54 | 191 | 0.0 | 0.0 | 0.00 | 0.00 | 0.00 | 85 | 1011.2 |
| 20260510021333 | 54 | 191 | 0.0 | 0.0 | 0.00 | 0.00 | 0.00 | 84 | 1011.2 |
| 20260510020828 | 55 | 191 | 0.0 | 0.9 | 0.00 | 0.00 | 0.00 | 83 | 1010.9 |
| 20260510020323 | 55 | 191 | 0.0 | 1.7 | 0.00 | 0.00 | 0.00 | 82 | 1011.3 |
| 20260510015819 | 55 | 190 | 0.9 | 0.9 | 0.00 | 0.00 | 0.00 | 83 | 1011.3 |
| 20260510015315 | 55 | 195 | 0.0 | 0.9 | 0.00 | 0.00 | 0.00 | 82 | 1011.1 |
| 20260510014811 | 55 | 195 | 0.9 | 0.9 | 0.00 | 0.00 | 0.00 | 82 | 1010.9 |
| 20260510014308 | 55 | 195 | 0.0 | 0.0 | 0.00 | 0.00 | 0.00 | 80 | 1010.9 |
| 20260510013804 | 56 | 195 | 0.0 | 0.9 | 0.00 | 0.00 | 0.00 | 80 | 1011.0 |
| 20260510013300 | 56 | 195 | 0.0 | 0.0 | 0.00 | 0.00 | 0.00 | 79 | 1010.8 |
| 20260510012755 | 56 | 196 | 0.0 | 0.9 | 0.00 | 0.00 | 0.00 | 79 | 1010.8 |
| 20260510012250 | 56 | 189 | 0.9 | 1.7 | 0.00 | 0.00 | 0.00 | 78 | 1010.7 |
| 20260510011749 | 56 | 189 | 0.0 | 0.9 | 0.00 | 0.00 | 0.00 | 78 | 1010.3 |
| 20260510011245 | 57 | 189 | 0.9 | 0.9 | 0.00 | 0.00 | 0.00 | 78 | 1010.3 |
| 20260510010742 | 57 | 189 | 0.0 | 0.9 | 0.00 | 0.00 | 0.00 | 78 | 1010.3 |
| 20260510010238 | 57 | 189 | 0.0 | 1.7 | 0.00 | 0.00 | 0.00 | 77 | 1010.2 |
| 20260510005736 | 57 | 184 | 0.0 | 0.9 | 0.00 | 0.00 | 0.00 | 77 | 1010.4 |
| 20260510005232 | 57 | 184 | 0.0 | 0.9 | 0.00 | 0.00 | 0.00 | 77 | 1010.0 |
| 20260510004730 | 57 | 184 | 0.0 | 0.9 | 0.00 | 0.00 | 0.00 | 76 | 1009.9 |
| 20260510004228 | 58 | 184 | 0.0 | 0.9 | 0.00 | 0.00 | 0.00 | 75 | 1009.9 |
| 20260510003725 | 58 | 184 | 0.0 | 0.0 | 0.00 | 0.00 | 0.00 | 75 | 1009.9 |
| 20260510003221 | 58 | 184 | 0.0 | 0.9 | 0.00 | 0.00 | 0.00 | 75 | 1009.7 |
| 20260510002720 | 58 | 184 | 0.0 | 0.0 | 0.00 | 0.00 | 0.00 | 73 | 1009.8 |
| 20260510002217 | 59 | 184 | 0.0 | 0.0 | 0.00 | 0.00 | 0.00 | 72 | 1009.7 |
| 20260510001714 | 59 | 181 | 0.0 | 0.9 | 0.00 | 0.00 | 0.00 | 71 | 1009.7 |
| 20260510001213 | 60 | 196 | 0.9 | 1.7 | 0.00 | 0.00 | 0.00 | 71 | 1009.5 |
| 20260510000708 | 60 | 195 | 0.0 | 1.7 | 0.00 | 0.00 | 0.00 | 70 | 1009.7 |
| 20260510000205 | 60 | 193 | 0.0 | 2.6 | 0.00 | 0.00 | 0.00 | 69 | 1009.5 |
| 20260509235702 | 60 | 202 | 0.9 | 1.7 | 0.00 | 0.00 | 0.00 | 69 | 1009.5 |
| 20260509235158 | 60 | 192 | 1.7 | 1.7 | 0.00 | 0.00 | 0.00 | 69 | 1009.7 |
| 20260509234655 | 61 | 203 | 0.9 | 0.9 | 0.00 | 0.00 | 0.00 | 69 | 1009.9 |
| 20260509234152 | 61 | 206 | 0.0 | 4.3 | 0.00 | 0.00 | 0.00 | 67 | 1009.5 |
| 20260509233650 | 61 | 190 | 1.7 | 1.7 | 0.00 | 0.00 | 0.00 | 67 | 1009.5 |
| 20260509233147 | 62 | 228 | 3.5 | 5.2 | 0.00 | 0.00 | 0.00 | 67 | 1009.4 |
| 20260509232643 | 62 | 191 | 1.7 | 6.1 | 0.00 | 0.00 | 0.00 | 66 | 1009.3 |
| 20260509232140 | 62 | 199 | 0.9 | 1.7 | 0.00 | 0.00 | 0.00 | 67 | 1009.4 |
| 20260509231637 | 62 | 205 | 0.9 | 4.3 | 0.00 | 0.00 | 0.00 | 65 | 1009.3 |
| 20260509231134 | 62 | 208 | 0.9 | 4.3 | 0.00 | 0.00 | 0.00 | 65 | 1009.5 |
| 20260509230631 | 62 | 191 | 0.9 | 4.3 | 0.00 | 0.00 | 0.00 | 65 | 1009.5 |
| 20260509230128 | 62 | 166 | 1.7 | 6.1 | 0.00 | 0.00 | 0.00 | 65 | 1009.4 |
| 20260509225624 | 62 | 178 | 0.0 | 2.6 | 0.00 | 0.00 | 0.00 | 65 | 1009.3 |
| 20260509225119 | 62 | 176 | 1.7 | 2.6 | 0.00 | 0.00 | 0.00 | 65 | 1009.6 |
| 20260509224614 | 62 | 193 | 2.6 | 4.3 | 0.00 | 0.00 | 0.00 | 65 | 1009.6 |
| 20260509224112 | 62 | 190 | 0.9 | 5.2 | 0.00 | 0.00 | 0.00 | 65 | 1009.8 |
| 20260509223609 | 63 | 196 | 1.7 | 5.2 | 0.00 | 0.00 | 0.00 | 64 | 1009.7 |
| 20260509223107 | 63 | 204 | 0.9 | 5.2 | 0.00 | 0.00 | 0.00 | 64 | 1009.6 |
| 20260509222602 | 63 | 184 | 2.6 | 4.3 | 0.00 | 0.00 | 0.00 | 64 | 1009.7 |
| 20260509222058 | 63 | 188 | 1.7 | 5.2 | 0.00 | 0.00 | 0.00 | 65 | 1009.5 |
| 20260509221554 | 63 | 224 | 2.6 | 4.3 | 0.00 | 0.00 | 0.00 | 65 | 1009.7 |
| 20260509221050 | 63 | 222 | 4.3 | 5.2 | 0.00 | 0.00 | 0.00 | 64 | 1009.8 |
| 20260509220546 | 64 | 206 | 2.6 | 6.1 | 0.00 | 0.00 | 0.00 | 63 | 1009.8 |
| 20260509220043 | 64 | 181 | 0.9 | 4.3 | 0.00 | 0.00 | 0.00 | 63 | 1009.8 |
| 20260509215538 | 64 | 218 | 2.6 | 4.3 | 0.00 | 0.00 | 0.00 | 63 | 1009.8 |
| 20260509215036 | 64 | 208 | 1.7 | 1.7 | 0.00 | 0.00 | 0.00 | 64 | 1009.8 |
| 20260509214533 | 63 | 195 | 0.0 | 2.6 | 0.00 | 0.00 | 0.00 | 64 | 1009.9 |
| 20260509214030 | 63 | 187 | 2.6 | 6.1 | 0.00 | 0.00 | 0.00 | 64 | 1009.8 |
| 20260509213526 | 64 | 215 | 1.7 | 6.1 | 0.00 | 0.00 | 0.00 | 63 | 1009.8 |
| 20260509213023 | 64 | 214 | 2.6 | 5.2 | 0.00 | 0.00 | 0.00 | 63 | 1009.6 |
| 20260509212520 | 64 | 189 | 3.5 | 5.2 | 0.00 | 0.00 | 0.00 | 63 | 1009.7 |
| 20260509212017 | 65 | 187 | 0.9 | 4.3 | 0.00 | 0.00 | 0.00 | 62 | 1009.7 |
| 20260509211512 | 66 | 176 | 0.0 | 5.2 | 0.00 | 0.00 | 0.00 | 60 | 1009.5 |
| 20260509211009 | 65 | 194 | 1.7 | 2.6 | 0.00 | 0.00 | 0.00 | 61 | 1009.5 |
| 20260509210506 | 64 | 191 | 1.7 | 2.6 | 0.00 | 0.00 | 0.00 | 63 | 1009.5 |
| 20260509210002 | 64 | 184 | 0.9 | 1.7 | 0.00 | 0.00 | 0.00 | 63 | 1009.5 |
| 20260509205456 | 64 | 186 | 0.9 | 5.2 | 0.00 | 0.00 | 0.00 | 61 | 1009.1 |
| 20260509204952 | 64 | 173 | 0.9 | 6.1 | 0.00 | 0.00 | 0.00 | 63 | 1009.4 |
| 20260509204449 | 64 | 210 | 1.7 | 4.3 | 0.00 | 0.00 | 0.00 | 62 | 1009.3 |
| 20260509203945 | 64 | 181 | 0.9 | 2.6 | 0.00 | 0.00 | 0.00 | 63 | 1009.5 |
| 20260509203441 | 64 | 214 | 1.7 | 4.3 | 0.00 | 0.00 | 0.00 | 62 | 1009.3 |
| 20260509202939 | 64 | 227 | 1.7 | 5.2 | 0.00 | 0.00 | 0.00 | 63 | 1009.5 |
| 20260509202435 | 64 | 2 | 2.6 | 5.2 | 0.00 | 0.00 | 0.00 | 63 | 1009.6 |
| 20260509201930 | 63 | 189 | 0.9 | 2.6 | 0.00 | 0.00 | 0.00 | 63 | 1009.2 |
| 20260509201425 | 63 | 107 | 2.6 | 4.3 | 0.00 | 0.00 | 0.00 | 64 | 1009.3 |
| 20260509200923 | 63 | 191 | 1.7 | 2.6 | 0.00 | 0.00 | 0.00 | 63 | 1009.4 |
| 20260509200422 | 63 | 232 | 2.6 | 2.6 | 0.00 | 0.00 | 0.00 | 63 | 1009.4 |
| 20260509195920 | 63 | 182 | 2.6 | 2.6 | 0.00 | 0.00 | 0.00 | 63 | 1009.3 |
| 20260509195415 | 63 | 169 | 0.9 | 5.2 | 0.00 | 0.00 | 0.00 | 63 | 1009.2 |
| 20260509194915 | 63 | 229 | 3.5 | 4.3 | 0.00 | 0.00 | 0.00 | 62 | 1009.5 |
| 20260509194411 | 64 | 242 | 4.3 | 5.2 | 0.00 | 0.00 | 0.00 | 61 | 1009.4 |
| 20260509193908 | 64 | 197 | 1.7 | 2.6 | 0.00 | 0.00 | 0.00 | 61 | 1009.5 |
| 20260509193408 | 64 | 3 | 2.6 | 6.1 | 0.00 | 0.00 | 0.00 | 61 | 1009.4 |
| 20260509192903 | 64 | 213 | 1.7 | 4.3 | 0.00 | 0.00 | 0.00 | 62 | 1009.4 |
| 20260509192400 | 66 | 205 | 2.6 | 4.3 | 0.00 | 0.00 | 0.00 | 60 | 1009.2 |
| 20260509191855 | 65 | 211 | 1.7 | 2.6 | 0.00 | 0.00 | 0.00 | 61 | 1009.3 |
| 20260509191351 | 65 | 203 | 2.6 | 6.1 | 0.00 | 0.00 | 0.00 | 59 | 1009.3 |
| 20260509190848 | 66 | 186 | 0.9 | 2.6 | 0.00 | 0.00 | 0.00 | 60 | 1009.2 |
| 20260509190344 | 66 | 189 | 2.6 | 7.0 | 0.00 | 0.00 | 0.00 | 60 | 1009.5 |
| 20260509185842 | 64 | 194 | 2.6 | 7.0 | 0.00 | 0.00 | 0.00 | 61 | 1009.4 |
| 20260509185338 | 64 | 174 | 0.9 | 2.6 | 0.00 | 0.00 | 0.00 | 61 | 1009.3 |
| 20260509184836 | 64 | 196 | 3.5 | 6.1 | 0.00 | 0.00 | 0.00 | 61 | 1009.5 |
| 20260509184333 | 63 | 244 | 2.6 | 5.2 | 0.00 | 0.00 | 0.00 | 64 | 1009.5 |
| 20260509183829 | 62 | 239 | 2.6 | 6.1 | 0.00 | 0.00 | 0.00 | 63 | 1009.4 |
| 20260509183324 | 63 | 177 | 0.9 | 2.6 | 0.00 | 0.00 | 0.00 | 63 | 1009.3 |
| 20260509182821 | 64 | 252 | 2.6 | 5.2 | 0.00 | 0.00 | 0.00 | 61 | 1009.4 |
| 20260509182318 | 64 | 187 | 0.9 | 2.6 | 0.00 | 0.00 | 0.00 | 60 | 1009.4 |
| 20260509181815 | 64 | 259 | 1.7 | 6.1 | 0.00 | 0.00 | 0.00 | 61 | 1009.3 |
| 20260509181312 | 64 | 227 | 2.6 | 6.1 | 0.00 | 0.00 | 0.00 | 59 | 1009.3 |
| 20260509180810 | 64 | 186 | 0.9 | 2.6 | 0.00 | 0.00 | 0.00 | 61 | 1009.2 |
| 20260509180306 | 64 | 210 | 1.7 | 4.3 | 0.00 | 0.00 | 0.00 | 61 | 1009.3 |
| 20260509175802 | 63 | 194 | 2.6 | 4.3 | 0.00 | 0.00 | 0.00 | 61 | 1009.3 |
| 20260509175259 | 62 | 184 | 1.7 | 4.3 | 0.00 | 0.00 | 0.00 | 63 | 1009.2 |
| 20260509174755 | 63 | 197 | 2.6 | 7.0 | 0.00 | 0.00 | 0.00 | 62 | 1009.3 |
| 20260509174250 | 63 | 194 | 2.6 | 2.6 | 0.00 | 0.00 | 0.00 | 61 | 1009.5 |
| 20260509173746 | 63 | 188 | 2.6 | 5.2 | 0.00 | 0.00 | 0.00 | 61 | 1009.5 |
| 20260509173242 | 64 | 223 | 3.5 | 5.2 | 0.00 | 0.00 | 0.00 | 60 | 1009.5 |
| 20260509172738 | 64 | 181 | 1.7 | 5.2 | 0.00 | 0.00 | 0.00 | 62 | 1009.6 |
| 20260509172235 | 64 | 182 | 0.9 | 4.3 | 0.00 | 0.00 | 0.00 | 61 | 1009.6 |
| 20260509171730 | 64 | 186 | 1.7 | 6.1 | 0.00 | 0.00 | 0.00 | 61 | 1009.6 |
| 20260509171227 | 63 | 173 | 2.6 | 6.1 | 0.00 | 0.00 | 0.00 | 60 | 1009.7 |
| 20260509170724 | 63 | 211 | 2.6 | 4.3 | 0.00 | 0.00 | 0.00 | 60 | 1009.6 |
| 20260509170220 | 63 | 222 | 4.3 | 7.8 | 0.00 | 0.00 | 0.00 | 59 | 1009.8 |
| 20260509165718 | 64 | 211 | 1.7 | 2.6 | 0.00 | 0.00 | 0.00 | 58 | 1009.7 |
| 20260509165214 | 65 | 247 | 3.5 | 5.2 | 0.00 | 0.00 | 0.00 | 57 | 1009.7 |
| 20260509164710 | 64 | 190 | 0.9 | 1.7 | 0.00 | 0.00 | 0.00 | 58 | 1009.6 |
| 20260509164206 | 64 | 211 | 2.6 | 2.6 | 0.00 | 0.00 | 0.00 | 57 | 1009.5 |
| 20260509163703 | 63 | 209 | 0.0 | 0.9 | 0.00 | 0.00 | 0.00 | 60 | 1009.7 |
| 20260509163200 | 61 | 187 | 0.9 | 1.7 | 0.00 | 0.00 | 0.00 | 62 | 1009.9 |
| 20260509162657 | 61 | 202 | 2.6 | 2.6 | 0.00 | 0.00 | 0.00 | 60 | 1009.7 |
| 20260509162153 | 61 | 187 | 0.9 | 2.6 | 0.00 | 0.00 | 0.00 | 59 | 1009.9 |
| 20260509161649 | 61 | 193 | 1.7 | 1.7 | 0.00 | 0.00 | 0.00 | 60 | 1009.8 |
| 20260509161144 | 61 | 194 | 1.7 | 1.7 | 0.00 | 0.00 | 0.00 | 60 | 1009.9 |
| 20260509160640 | 60 | 185 | 0.0 | 1.7 | 0.00 | 0.00 | 0.00 | 62 | 1010.0 |
| 20260509160135 | 59 | 185 | 0.0 | 0.9 | 0.00 | 0.00 | 0.00 | 62 | 1010.0 |
| 20260509155632 | 59 | 192 | 0.9 | 2.6 | 0.00 | 0.00 | 0.00 | 62 | 1009.9 |
| 20260509155128 | 59 | 202 | 1.7 | 1.7 | 0.00 | 0.00 | 0.00 | 61 | 1009.7 |
| 20260509154624 | 59 | 188 | 0.0 | 2.6 | 0.00 | 0.00 | 0.00 | 61 | 1009.9 |
| 20260509154121 | 59 | 186 | 0.0 | 1.7 | 0.00 | 0.00 | 0.00 | 61 | 1010.2 |
| 20260509153618 | 59 | 197 | 1.7 | 2.6 | 0.00 | 0.00 | 0.00 | 60 | 1010.1 |
| 20260509153115 | 59 | 189 | 0.0 | 2.6 | 0.00 | 0.00 | 0.00 | 60 | 1010.3 |
| 20260509152611 | 59 | 192 | 0.9 | 1.7 | 0.00 | 0.00 | 0.00 | 59 | 1010.1 |
| 20260509152109 | 59 | 192 | 1.7 | 2.6 | 0.00 | 0.00 | 0.00 | 59 | 1010.3 |
| 20260509151604 | 60 | 190 | 0.0 | 1.7 | 0.00 | 0.00 | 0.00 | 60 | 1010.0 |
| 20260509151103 | 60 | 175 | 0.9 | 1.7 | 0.00 | 0.00 | 0.00 | 60 | 1010.7 |
| 20260509150600 | 59 | 181 | 0.0 | 0.9 | 0.00 | 0.00 | 0.00 | 63 | 1010.3 |
| 20260509150059 | 58 | 184 | 0.0 | 0.9 | 0.00 | 0.00 | 0.00 | 62 | 1010.3 |
| 20260509145554 | 58 | 184 | 0.9 | 0.9 | 0.00 | 0.00 | 0.00 | 64 | 1010.3 |
| 20260509145049 | 58 | 188 | 0.9 | 1.7 | 0.00 | 0.00 | 0.00 | 63 | 1010.7 |
| 20260509144546 | 58 | 181 | 0.9 | 1.7 | 0.00 | 0.00 | 0.00 | 66 | 1010.4 |
| 20260509144043 | 58 | 171 | 0.0 | 0.9 | 0.00 | 0.00 | 0.00 | 68 | 1010.4 |
| 20260509143540 | 59 | 168 | 0.0 | 2.6 | 0.00 | 0.00 | 0.00 | 66 | 1010.3 |
| 20260509143038 | 58 | 169 | 0.0 | 0.9 | 0.00 | 0.00 | 0.00 | 69 | 1010.0 |
| 20260509142533 | 58 | 169 | 0.0 | 0.9 | 0.00 | 0.00 | 0.00 | 68 | 1010.1 |
| 20260509142029 | 57 | 169 | 0.9 | 2.6 | 0.00 | 0.00 | 0.00 | 68 | 1010.0 |
| 20260509141526 | 56 | 121 | 1.7 | 2.6 | 0.00 | 0.00 | 0.00 | 69 | 1010.1 |
| 20260509141023 | 57 | 124 | 1.7 | 1.7 | 0.00 | 0.00 | 0.00 | 70 | 1009.9 |
| 20260509140519 | 56 | 167 | 0.0 | 0.9 | 0.00 | 0.00 | 0.00 | 71 | 1010.0 |
| 20260509140018 | 56 | 152 | 1.7 | 1.7 | 0.00 | 0.00 | 0.00 | 70 | 1010.1 |
| 20260509135514 | 55 | 136 | 1.7 | 2.6 | 0.00 | 0.00 | 0.00 | 72 | 1009.8 |
| 20260509135012 | 56 | 124 | 1.7 | 1.7 | 0.00 | 0.00 | 0.00 | 73 | 1010.0 |
| 20260509134509 | 55 | 149 | 0.9 | 1.7 | 0.00 | 0.00 | 0.00 | 74 | 1010.0 |
| 20260509134007 | 55 | 150 | 0.9 | 2.6 | 0.00 | 0.00 | 0.00 | 74 | 1010.0 |
| 20260509133503 | 55 | 122 | 2.6 | 2.6 | 0.00 | 0.00 | 0.00 | 74 | 1010.1 |
| 20260509133001 | 55 | 68 | 3.5 | 4.3 | 0.00 | 0.00 | 0.00 | 74 | 1010.4 |
| 20260509132459 | 55 | 117 | 1.7 | 2.6 | 0.00 | 0.00 | 0.00 | 74 | 1010.3 |
| 20260509131955 | 54 | 152 | 0.0 | 1.7 | 0.00 | 0.00 | 0.00 | 76 | 1010.0 |
| 20260509131453 | 54 | 166 | 0.0 | 2.6 | 0.00 | 0.00 | 0.00 | 75 | 1010.2 |
| 20260509130949 | 53 | 166 | 0.9 | 0.9 | 0.00 | 0.00 | 0.00 | 77 | 1010.6 |
| 20260509130445 | 53 | 141 | 0.9 | 1.7 | 0.00 | 0.00 | 0.00 | 78 | 1010.2 |
| 20260509125942 | 53 | 135 | 0.9 | 1.7 | 0.00 | 0.00 | 0.00 | 78 | 1010.2 |
| 20260509125438 | 53 | 157 | 0.9 | 1.7 | 0.00 | 0.00 | 0.00 | 79 | 1010.1 |
| 20260509124934 | 52 | 159 | 0.9 | 1.7 | 0.00 | 0.00 | 0.00 | 78 | 1010.4 |
| 20260509124432 | 52 | 166 | 0.0 | 1.7 | 0.00 | 0.00 | 0.00 | 78 | 1010.2 |
| 20260509123929 | 52 | 152 | 0.9 | 1.7 | 0.00 | 0.00 | 0.00 | 78 | 1009.9 |
| 20260509123426 | 52 | 173 | 0.0 | 0.0 | 0.00 | 0.00 | 0.00 | 78 | 1010.1 |
| 20260509122922 | 52 | 173 | 0.0 | 0.0 | 0.00 | 0.00 | 0.00 | 79 | 1010.3 |
| 20260509122419 | 51 | 173 | 0.0 | 0.0 | 0.00 | 0.00 | 0.00 | 79 | 1010.3 |
| 20260509121916 | 51 | 173 | 0.0 | 0.0 | 0.00 | 0.00 | 0.00 | 78 | 1010.2 |
| 20260509121413 | 51 | 173 | 0.0 | 0.0 | 0.00 | 0.00 | 0.00 | 78 | 1010.3 |
| 20260509120911 | 51 | 173 | 0.0 | 0.0 | 0.00 | 0.00 | 0.00 | 78 | 1010.2 |
| 20260509120408 | 51 | 172 | 0.0 | 0.0 | 0.00 | 0.00 | 0.00 | 78 | 1010.3 |
| 20260509115906 | 50 | 169 | 0.0 | 0.0 | 0.00 | 0.00 | 0.00 | 78 | 1010.0 |
| 20260509115403 | 50 | 169 | 0.0 | 0.0 | 0.00 | 0.00 | 0.00 | 78 | 1010.2 |
| 20260509114901 | 50 | 169 | 0.0 | 0.0 | 0.00 | 0.00 | 0.00 | 77 | 1010.4 |
| 20260509114359 | 50 | 175 | 0.0 | 0.0 | 0.00 | 0.00 | 0.00 | 79 | 1010.3 |
| 20260509113858 | 50 | 175 | 0.0 | 0.0 | 0.00 | 0.00 | 0.00 | 80 | 1010.3 |
| 20260509113355 | 50 | 175 | 0.0 | 0.9 | 0.00 | 0.00 | 0.00 | 81 | 1010.3 |
| 20260509112852 | 50 | 179 | 0.0 | 0.0 | 0.00 | 0.00 | 0.00 | 81 | 1010.6 |
| 20260509112349 | 50 | 179 | 0.0 | 0.0 | 0.00 | 0.00 | 0.00 | 83 | 1010.6 |
| 20260509111846 | 50 | 181 | 0.0 | 0.0 | 0.00 | 0.00 | 0.00 | 83 | 1010.6 |
| 20260509111343 | 50 | 181 | 0.9 | 0.9 | 0.00 | 0.00 | 0.00 | 82 | 1010.4 |
| 20260509110841 | 50 | 181 | 0.0 | 0.9 | 0.00 | 0.00 | 0.00 | 82 | 1010.4 |
| 20260509110336 | 50 | 180 | 0.0 | 0.0 | 0.00 | 0.00 | 0.00 | 82 | 1010.4 |
| 20260509105835 | 50 | 181 | 0.0 | 0.9 | 0.00 | 0.00 | 0.00 | 80 | 1010.7 |
| 20260509105333 | 50 | 182 | 0.9 | 0.9 | 0.00 | 0.00 | 0.00 | 80 | 1010.3 |
| 20260509104829 | 50 | 183 | 0.0 | 0.9 | 0.00 | 0.00 | 0.00 | 78 | 1010.4 |
| 20260509104326 | 50 | 179 | 0.0 | 0.0 | 0.00 | 0.00 | 0.00 | 76 | 1010.3 |
| 20260509103824 | 51 | 182 | 0.9 | 0.9 | 0.00 | 0.00 | 0.00 | 75 | 1010.3 |
| 20260509103321 | 51 | 174 | 0.0 | 0.0 | 0.00 | 0.00 | 0.00 | 75 | 1010.2 |
| 20260509102820 | 51 | 167 | 0.0 | 0.9 | 0.00 | 0.00 | 0.00 | 73 | 1010.2 |
| 20260509102317 | 51 | 172 | 0.0 | 1.7 | 0.00 | 0.00 | 0.00 | 73 | 1010.2 |
| 20260509101812 | 51 | 147 | 1.7 | 1.7 | 0.00 | 0.00 | 0.00 | 71 | 1010.2 |
| 20260509101308 | 51 | 175 | 0.0 | 1.7 | 0.00 | 0.00 | 0.00 | 71 | 1010.1 |
| 20260509100806 | 51 | 163 | 0.9 | 1.7 | 0.00 | 0.00 | 0.00 | 68 | 1010.1 |
| 20260509100303 | 52 | 173 | 0.0 | 1.7 | 0.00 | 0.00 | 0.00 | 68 | 1010.2 |
| 20260509095800 | 52 | 176 | 0.0 | 1.7 | 0.00 | 0.00 | 0.00 | 67 | 1010.2 |
| 20260509095257 | 52 | 174 | 0.0 | 0.0 | 0.00 | 0.00 | 0.00 | 66 | 1010.3 |
| 20260509094754 | 52 | 213 | 1.7 | 1.7 | 0.00 | 0.00 | 0.00 | 65 | 1010.2 |
| 20260509094251 | 53 | 176 | 0.0 | 0.9 | 0.00 | 0.00 | 0.00 | 65 | 1010.2 |
| 20260509093749 | 53 | 183 | 0.0 | 1.7 | 0.00 | 0.00 | 0.00 | 63 | 1010.2 |
| 20260509093246 | 53 | 175 | 0.9 | 1.7 | 0.00 | 0.00 | 0.00 | 63 | 1010.1 |
| 20260509092744 | 54 | 164 | 0.0 | 1.7 | 0.00 | 0.00 | 0.00 | 61 | 1010.2 |
| 20260509092242 | 54 | 76 | 0.9 | 1.7 | 0.00 | 0.00 | 0.00 | 60 | 1010.2 |
| 20260509091739 | 54 | 187 | 0.0 | 0.9 | 0.00 | 0.00 | 0.00 | 59 | 1010.3 |
| 20260509091235 | 54 | 187 | 0.0 | 0.0 | 0.00 | 0.00 | 0.00 | 61 | 1010.0 |
| 20260509090733 | 54 | 187 | 0.0 | 0.9 | 0.00 | 0.00 | 0.00 | 61 | 1010.1 |
| 20260509090231 | 54 | 186 | 0.0 | 0.0 | 0.00 | 0.00 | 0.00 | 61 | 1010.1 |
| 20260509085728 | 54 | 185 | 0.0 | 0.0 | 0.00 | 0.00 | 0.00 | 58 | 1010.1 |
| 20260509085225 | 54 | 186 | 0.0 | 0.0 | 0.00 | 0.00 | 0.00 | 58 | 1010.4 |
| 20260509084722 | 54 | 186 | 0.0 | 0.0 | 0.00 | 0.00 | 0.00 | 59 | 1010.2 |
| 20260509084218 | 54 | 188 | 0.0 | 0.0 | 0.00 | 0.00 | 0.00 | 58 | 1010.3 |
| 20260509083717 | 54 | 188 | 0.0 | 0.0 | 0.00 | 0.00 | 0.00 | 58 | 1010.2 |